Location: Houhaj�rvi
(61.2833°N, 23.0000°E)
Time: 18:06:08
(UTC+00:00)

CENTAUR R/B - Pass Details

Date: 27 February 2020
Orbit: 766 x 1422 km, 63.5° (Epoch: 12 March)

Event Time Altitude Azimuth Distance (km) Brightness Sun altitude
Rises 19:08:50 0° 304° (NW) 4,008 7.1 -24.4°
Reaches altitude 10° 19:11:30 10° 299° (WNW) 3,134 6.2 -24.7°
Maximum altitude 19:18:46 48° 228° (SW) 1,663 3.7 -25.4°
Enters shadow 19:22:39 30° 174° (S) 2,249 4.0 -25.8°
